Location: Igri�s
(42.2144°N, 0.4320°W)
Time: 18:19:12
(UTC+00:00)

Spot 2 Rocket - Pass Details

Date: 13 August 2020
Orbit: 756 x 773 km, 98.6° (Epoch: 18 September)

Event Time Altitude Azimuth Distance (km) Brightness Sun altitude
Exits shadow 20:25:33 21° 118° (ESE) 1,688 4.6 -14.1°
Maximum altitude 20:28:14 35° 68° (ENE) 1,236 4.3 -14.5°
Drops below altitude 10° 20:32:49 10° 4° (N) 2,317 6.4 -15.2°
Sets 20:35:18 0° 356° (N) 3,246 7.4 -15.5°
